TimeEDT,TemperatureF,Dew PointF,Humidity,Sea Level PressureIn,VisibilityMPH,Wind Direction,Wind SpeedMPH,Gust SpeedMPH,PrecipitationIn,Events,Conditions,WindDirDegrees,DateUTC
12:58 AM,73.9,73.4,98,29.97,10.0,NE,3.5,-,N/A,,Clear,50,2013-09-08 04:58:00
1:58 AM,74.8,74.8,100,29.97,10.0,NE,6.9,-,N/A,,Clear,40,2013-09-08 05:58:00
2:58 AM,74.1,74.1,100,29.96,10.0,NE,3.5,-,N/A,,Clear,50,2013-09-08 06:58:00
3:58 AM,72.7,72.7,100,29.95,10.0,NE,4.6,-,N/A,,Clear,40,2013-09-08 07:58:00
4:58 AM,72.7,72.7,100,29.95,10.0,NE,4.6,-,N/A,,Clear,40,2013-09-08 08:58:00
5:58 AM,71.6,71.6,100,29.95,10.0,NE,4.6,-,N/A,,Clear,50,2013-09-08 09:58:00
6:58 AM,71.2,71.2,100,29.95,10.0,NE,3.5,-,N/A,,Clear,40,2013-09-08 10:58:00
7:58 AM,72.1,72.1,100,29.96,10.0,NE,3.5,-,N/A,,Clear,50,2013-09-08 11:58:00
8:58 AM,76.6,76.6,100,29.97,10.0,ENE,10.4,-,N/A,,Clear,60,2013-09-08 12:58:00
9:58 AM,81.3,77.0,87,29.98,10.0,East,11.5,-,N/A,,Clear,90,2013-09-08 13:58:00
10:58 AM,83.7,75.9,77,29.99,10.0,East,10.4,-,N/A,,Clear,80,2013-09-08 14:58:00
11:58 AM,86.0,76.1,72,29.98,10.0,East,9.2,-,N/A,,Partly Cloudy,90,2013-09-08 15:58:00
12:17 PM,87.8,75.2,66,29.97,10.0,ESE,4.6,-,N/A,,Light Drizzle,120,2013-09-08 16:17:00
12:19 PM,87.8,75.2,66,29.97,10.0,Variable,6.9,-,N/A,,Clear,0,2013-09-08 16:19:00
12:58 PM,88.5,75.4,65,29.96,10.0,East,6.9,-,0.00,,Partly Cloudy,80,2013-09-08 16:58:00
1:58 PM,89.6,74.7,61,29.95,10.0,ENE,5.8,-,N/A,,Partly Cloudy,60,2013-09-08 17:58:00
1:59 PM,89.6,73.4,59,29.94,10.0,East,3.5,-,N/A,,Light Drizzle,90,2013-09-08 17:59:00
2:05 PM,89.6,73.4,59,29.94,10.0,East,8.1,-,N/A,,Clear,90,2013-09-08 18:05:00
2:58 PM,91.8,73.2,54,29.92,10.0,Variable,4.6,-,0.00,,Clear,0,2013-09-08 18:58:00
3:14 PM,93.2,73.4,52,29.90,10.0,Variable,1.2,-,N/A,,Light Drizzle,0,2013-09-08 19:14:00
3:16 PM,93.2,73.4,52,29.90,10.0,WNW,6.9,-,N/A,,Clear,290,2013-09-08 19:16:00
3:58 PM,91.9,73.4,54,29.90,10.0,NW,9.2,-,0.00,,Partly Cloudy,310,2013-09-08 19:58:00
4:58 PM,91.4,71.2,51,29.90,10.0,NW,8.1,-,N/A,,Scattered Clouds,320,2013-09-08 20:58:00
5:58 PM,90.3,73.4,57,29.88,10.0,NNW,8.1,-,N/A,,Clear,330,2013-09-08 21:58:00
6:58 PM,88.2,72.0,59,29.89,10.0,NE,4.6,-,N/A,,Clear,40,2013-09-08 22:58:00
7:58 PM,82.9,70.0,65,29.90,10.0,NE,5.8,-,N/A,,Clear,50,2013-09-08 23:58:00
8:58 PM,82.4,73.6,75,29.94,10.0,East,12.7,-,N/A,,Partly Cloudy,80,2013-09-09 00:58:00
9:58 PM,82.8,74.1,75,29.98,10.0,ESE,13.8,-,N/A,,Scattered Clouds,110,2013-09-09 01:58:00
10:58 PM,79.7,74.3,83,29.99,10.0,ESE,9.2,-,N/A,,Clear,120,2013-09-09 02:58:00
11:58 PM,78.3,74.8,89,30.00,10.0,ESE,8.1,-,N/A,,Clear,110,2013-09-09 03:58:00